Location: ????????
(55.6189°N, 38.3031°E)
Time: 21:54:17
(UTC+00:00)

SL-16 R/B - Visible Passes

Search period start: 21 February 2020 00:00
Search period end: 02 March 2020 00:00
Orbit: 841 x 848 km, 71.0° (Epoch: 21 February)

Date Brightness Start Highest point End Pass type
(mag) Time Alt. Az. Time Alt. Az. Time Alt. Az.
21 Feb 3.7 00:24:18 29° ESE 00:24:18 29° ESE 00:28:54 10° NE visible
21 Feb 2.1 02:06:12 47° WSW 02:07:49 71° NW 02:13:31 10° NNE visible
21 Feb 3.4 03:48:14 10° W 03:52:56 26° NNW 03:57:38 10° NNE visible
22 Feb 3.9 00:10:45 27° E 00:10:45 27° E 00:14:47 10° NE visible
22 Feb 2.1 01:52:38 57° WSW 01:53:43 72° NW 01:59:25 10° NNE visible
22 Feb 3.4 03:34:32 12° W 03:38:48 26° NNW 03:43:33 10° NNE visible
22 Feb 4.0 23:57:09 25° E 23:57:09 25° E 00:00:39 10° NE visible
23 Feb 2.1 01:39:02 68° W 01:39:36 74° NW 01:45:19 10° NNE visible
23 Feb 3.4 03:20:55 14° W 03:24:41 26° NNW 03:29:26 10° NNE visible
23 Feb 4.1 23:43:30 23° ENE 23:43:30 23° ENE 23:46:31 10° NE visible
24 Feb 2.1 01:25:22 75° WNW 01:25:30 76° NW 01:31:14 10° NNE visible
24 Feb 3.4 03:07:15 16° WNW 03:10:33 27° NNW 03:15:19 10° NNE visible
24 Feb 4.3 23:29:49 21° ENE 23:29:49 21° ENE 23:32:24 10° NE visible
25 Feb 2.2 01:11:41 75° NNW 01:11:41 75° NNW 01:17:07 10° NNE visible
25 Feb 3.4 02:53:34 18° WNW 02:56:25 27° NNW 03:01:14 10° NNE visible
25 Feb 4.4 23:16:05 19° ENE 23:16:05 19° ENE 23:18:16 10° NE visible
26 Feb 2.3 00:57:57 69° N 00:57:57 69° N 01:03:01 10° NNE visible
26 Feb 3.4 02:39:50 20° WNW 02:42:18 27° NNW 02:47:08 10° NNE visible
26 Feb 4.5 23:02:20 18° ENE 23:02:20 18° ENE 23:04:08 10° NE visible
27 Feb 2.5 00:44:12 62° NNE 00:44:12 62° NNE 00:48:55 10° NNE visible
27 Feb 3.4 02:26:04 22° WNW 02:28:11 28° NNW 02:33:02 10° NNE visible
27 Feb 4.6 22:48:33 16° ENE 22:48:33 16° ENE 22:50:01 10° NE visible
28 Feb 2.7 00:30:25 55° NNE 00:30:25 55° NNE 00:34:50 10° NNE visible
28 Feb 3.4 02:12:17 24° WNW 02:14:03 28° NNW 02:18:56 10° NNE visible
28 Feb 4.7 22:34:45 14° ENE 22:34:45 14° ENE 22:35:53 10° NE visible
29 Feb 2.9 00:16:37 49° NNE 00:16:37 49° NNE 00:20:44 10° NE visible
29 Feb 3.3 01:58:29 26° WNW 01:59:56 29° NNW 02:04:50 10° NNE visible
29 Feb 4.1 03:42:16 10° NW 03:45:59 17° N 03:49:42 10° NE visible
29 Feb 4.8 22:20:55 13° ENE 22:20:55 13° ENE 22:21:45 10° NE visible
01 Mar 3.1 00:02:47 45° NNE 00:02:47 45° NNE 00:06:38 10° NE visible
01 Mar 3.3 01:44:40 27° NW 01:45:49 29° NNW 01:50:44 10° NNE visible
01 Mar 4.1 03:28:08 10° NW 03:31:51 17° N 03:35:34 10° NE visible
01 Mar 4.8 22:07:05 12° ENE 22:07:05 12° ENE 22:07:37 10° NE visible
01 Mar 3.3 23:48:57 41° NNE 23:48:57 41° NNE 23:52:32 10° NE visible
